OAL903 MMZO-MMMX

Flight info

Callsign OAL903
Flight time 0h 56m
Altitude 37000
Route MEKLI UJ58 IGVES UT119 ESPOS ESPOS3A
Aircraft B738/M-SDE2E3FGHIRWXY/LB1

Departure

Time 2026-05-04 19:15
Airport Playa de Oro International Airport (MMZO)

Arrival

Time 2026-05-04 20:11
Airport Mexico City Benito Juárez International Airport (MMMX)
Time Latitude Longitude Altitude Speed Heading
2026-05-04 18:45 19.14764 -104.56096 10 ft 0 kts 16°
2026-05-04 19:06 19.14752 -104.56100 21 ft 2 kts 20°
2026-05-04 19:06 19.14737 -104.56107 11 ft 2 kts 30°
2026-05-04 19:07 19.14724 -104.56118 11 ft 2 kts 65°
2026-05-04 19:07 19.14722 -104.56134 11 ft 1 kts 104°
2026-05-04 19:07 19.14723 -104.56137 11 ft 0 kts 105°
2026-05-04 19:10 19.14723 -104.56136 10 ft 1 kts 105°
2026-05-04 19:10 19.14716 -104.56110 10 ft 9 kts 106°
2026-05-04 19:10 19.14691 -104.56019 10 ft 15 kts 106°
2026-05-04 19:11 19.14645 -104.55943 10 ft 13 kts 134°
2026-05-04 19:11 19.14584 -104.55882 10 ft 0 kts 136°
2026-05-04 19:11 19.14574 -104.55872 10 ft 4 kts 135°
2026-05-04 19:11 19.14532 -104.55828 10 ft 12 kts 135°
2026-05-04 19:12 19.14461 -104.55750 9 ft 17 kts 129°
2026-05-04 19:12 19.14371 -104.55472 8 ft 23 kts 106°
2026-05-04 19:12 19.14325 -104.55303 8 ft 26 kts 106°
2026-05-04 19:13 19.14273 -104.55114 5 ft 28 kts 106°
2026-05-04 19:13 19.14233 -104.54955 7 ft 12 kts 92°
2026-05-04 19:13 19.14258 -104.54876 8 ft 8 kts 93°
2026-05-04 19:13 19.14214 -104.54865 7 ft 8 kts 233°
2026-05-04 19:14 19.14216 -104.54904 7 ft 0 kts 285°
2026-05-04 19:14 19.14242 -104.54997 6 ft 48 kts 286°
2026-05-04 19:14 19.14419 -104.55651 9 ft 134 kts 285°
2026-05-04 19:15 19.14745 -104.56775 425 ft 171 kts 284°
2026-05-04 19:15 19.15100 -104.57966 1646 ft 170 kts 285°
2026-05-04 19:15 19.15443 -104.59189 2657 ft 178 kts 287°
2026-05-04 19:15 19.15856 -104.60463 3341 ft 195 kts 287°
2026-05-04 19:16 19.16103 -104.61961 3691 ft 218 kts 278°
2026-05-04 19:16 19.16347 -104.63644 3911 ft 244 kts 280°
2026-05-04 19:16 19.16663 -104.65463 4336 ft 260 kts 281°
2026-05-04 19:16 19.17048 -104.67411 4719 ft 278 kts 283°
2026-05-04 19:17 19.17462 -104.69423 5542 ft 280 kts 280°
2026-05-04 19:17 19.17356 -104.71471 6359 ft 285 kts 252°
2026-05-04 19:17 19.16337 -104.73273 7079 ft 289 kts 225°
2026-05-04 19:17 19.14645 -104.74418 7867 ft 292 kts 199°
2026-05-04 19:18 19.12630 -104.74680 8591 ft 296 kts 173°
2026-05-04 19:18 19.10687 -104.73989 9342 ft 298 kts 147°
2026-05-04 19:18 19.09211 -104.72465 10082 ft 300 kts 121°
2026-05-04 19:18 19.08480 -104.70369 10480 ft 315 kts 96°
2026-05-04 19:19 19.08663 -104.67996 10636 ft 336 kts 72°
2026-05-04 19:19 19.09719 -104.65728 10844 ft 353 kts 57°
2026-05-04 19:19 19.11114 -104.63541 11315 ft 361 kts 56°
2026-05-04 19:19 19.12507 -104.61318 11936 ft 364 kts 57°
2026-05-04 19:20 19.13843 -104.59069 12580 ft 366 kts 58°
2026-05-04 19:20 19.14996 -104.56660 13183 ft 370 kts 74°
2026-05-04 19:20 19.15464 -104.53986 13824 ft 371 kts 83°
2026-05-04 19:20 19.15794 -104.51276 14458 ft 371 kts 83°
2026-05-04 19:21 19.16108 -104.48559 15104 ft 371 kts 83°
2026-05-04 19:21 19.16429 -104.45837 15731 ft 372 kts 83°
2026-05-04 19:21 19.16759 -104.43115 16292 ft 375 kts 83°
2026-05-04 19:21 19.17099 -104.40365 16836 ft 377 kts 83°
2026-05-04 19:22 19.17445 -104.37609 17398 ft 380 kts 83°
2026-05-04 19:22 19.17797 -104.34833 17947 ft 382 kts 83°
2026-05-04 19:22 19.18148 -104.32072 18449 ft 384 kts 83°
2026-05-04 19:22 19.18506 -104.29256 18899 ft 387 kts 83°
2026-05-04 19:23 19.18866 -104.26424 19317 ft 390 kts 83°
2026-05-04 19:23 19.19229 -104.23562 19726 ft 393 kts 83°
2026-05-04 19:23 19.19592 -104.20682 20157 ft 396 kts 83°
2026-05-04 19:23 19.19959 -104.17786 20580 ft 399 kts 83°
2026-05-04 19:24 19.20328 -104.14867 21013 ft 401 kts 83°
2026-05-04 19:24 19.20700 -104.11928 21450 ft 404 kts 83°
2026-05-04 19:24 19.21075 -104.08967 21818 ft 408 kts 83°
2026-05-04 19:24 19.21451 -104.06017 22212 ft 410 kts 82°
2026-05-04 19:25 19.21832 -104.03019 22590 ft 413 kts 82°
2026-05-04 19:25 19.22217 -103.99993 22979 ft 416 kts 82°
2026-05-04 19:25 19.22602 -103.96948 23354 ft 418 kts 82°
2026-05-04 19:25 19.22989 -103.93887 23698 ft 421 kts 83°
2026-05-04 19:26 19.23378 -103.90809 23974 ft 424 kts 82°
2026-05-04 19:26 19.23770 -103.87705 24278 ft 426 kts 82°
2026-05-04 19:26 19.24163 -103.84579 24551 ft 429 kts 82°
2026-05-04 19:26 19.24559 -103.81437 24832 ft 432 kts 82°
2026-05-04 19:27 19.24955 -103.78278 25119 ft 435 kts 82°
2026-05-04 19:27 19.25354 -103.75099 25377 ft 438 kts 82°
2026-05-04 19:27 19.25619 -103.72982 25566 ft 439 kts 82°
2026-05-04 19:27 19.26021 -103.69768 25848 ft 442 kts 82°
2026-05-04 19:28 19.26424 -103.66541 26126 ft 444 kts 82°
2026-05-04 19:28 19.26830 -103.63292 26364 ft 447 kts 82°
2026-05-04 19:28 19.27237 -103.60020 26606 ft 450 kts 82°
2026-05-04 19:28 19.27639 -103.56730 26839 ft 452 kts 83°
2026-05-04 19:29 19.27963 -103.53410 27091 ft 455 kts 84°
2026-05-04 19:29 19.28233 -103.50056 27345 ft 457 kts 84°
2026-05-04 19:29 19.28485 -103.46694 27580 ft 459 kts 85°
2026-05-04 19:29 19.28738 -103.43314 27797 ft 462 kts 84°
2026-05-04 19:30 19.28996 -103.39952 28005 ft 464 kts 84°
2026-05-04 19:30 19.29264 -103.36539 28214 ft 467 kts 84°
2026-05-04 19:30 19.29540 -103.33105 28420 ft 469 kts 84°
2026-05-04 19:30 19.29819 -103.29659 28632 ft 471 kts 84°
2026-05-04 19:31 19.30102 -103.26186 28831 ft 474 kts 84°
2026-05-04 19:31 19.30385 -103.22702 29017 ft 476 kts 84°
2026-05-04 19:31 19.30670 -103.19206 29211 ft 478 kts 84°
2026-05-04 19:31 19.30955 -103.15682 29398 ft 481 kts 84°
2026-05-04 19:32 19.31240 -103.12147 29649 ft 482 kts 84°
2026-05-04 19:32 19.31524 -103.08610 29815 ft 484 kts 84°
2026-05-04 19:32 19.31810 -103.05048 30033 ft 486 kts 84°
2026-05-04 19:32 19.32094 -103.01483 30255 ft 486 kts 84°
2026-05-04 19:33 19.32379 -102.97915 30520 ft 485 kts 84°
2026-05-04 19:33 19.32662 -102.94361 30769 ft 485 kts 84°
2026-05-04 19:33 19.32944 -102.90809 31019 ft 485 kts 84°
2026-05-04 19:33 19.33225 -102.87250 31274 ft 484 kts 84°
2026-05-04 19:34 19.33502 -102.83748 31540 ft 484 kts 84°
2026-05-04 19:34 19.33782 -102.80196 31814 ft 483 kts 84°
2026-05-04 19:34 19.34061 -102.76651 32094 ft 483 kts 84°
2026-05-04 19:34 19.34339 -102.73100 32383 ft 482 kts 84°
2026-05-04 19:35 19.34617 -102.69547 32676 ft 481 kts 84°
2026-05-04 19:35 19.34892 -102.66014 32982 ft 481 kts 84°
2026-05-04 19:35 19.35167 -102.62487 33288 ft 480 kts 84°
2026-05-04 19:35 19.35441 -102.58960 33579 ft 479 kts 84°
2026-05-04 19:36 19.35710 -102.55484 33859 ft 479 kts 84°
2026-05-04 19:36 19.35981 -102.51963 34118 ft 478 kts 84°
2026-05-04 19:36 19.36251 -102.48451 34369 ft 478 kts 84°
2026-05-04 19:36 19.36520 -102.44945 34609 ft 478 kts 84°
2026-05-04 19:37 19.36788 -102.41435 34855 ft 477 kts 84°
2026-05-04 19:37 19.37055 -102.37936 35129 ft 477 kts 84°
2026-05-04 19:37 19.37321 -102.34436 35417 ft 476 kts 84°
2026-05-04 19:37 19.37586 -102.30946 35696 ft 475 kts 84°
2026-05-04 19:38 19.37847 -102.27493 35938 ft 475 kts 84°
2026-05-04 19:38 19.38110 -102.24010 36206 ft 475 kts 84°
2026-05-04 19:38 19.38373 -102.20524 36467 ft 474 kts 85°
2026-05-04 19:38 19.38634 -102.17041 36722 ft 474 kts 85°
2026-05-04 19:39 19.38895 -102.13561 36960 ft 474 kts 84°
2026-05-04 19:39 19.39154 -102.10088 37161 ft 473 kts 85°
2026-05-04 19:39 19.39414 -102.06611 37252 ft 473 kts 85°
2026-05-04 19:40 19.39654 -101.99629 37265 ft 476 kts 90°
2026-05-04 19:40 19.39453 -101.92608 37235 ft 476 kts 91°
2026-05-04 19:41 19.39238 -101.85610 37170 ft 475 kts 91°
2026-05-04 19:41 19.39075 -101.78661 37100 ft 475 kts 90°
2026-05-04 19:42 19.38930 -101.71668 37030 ft 475 kts 90°
2026-05-04 19:42 19.38782 -101.64671 36972 ft 475 kts 91°
2026-05-04 19:43 19.38629 -101.57677 36961 ft 475 kts 91°
2026-05-04 19:43 19.38456 -101.50672 36949 ft 476 kts 94°
2026-05-04 19:44 19.37108 -101.43836 36938 ft 476 kts 111°
2026-05-04 19:44 19.34558 -101.37365 36934 ft 476 kts 114°
2026-05-04 19:45 19.31961 -101.30951 36908 ft 477 kts 113°
2026-05-04 19:45 19.29385 -101.24474 36893 ft 477 kts 113°
2026-05-04 19:46 19.26836 -101.17984 36868 ft 478 kts 113°
2026-05-04 19:46 19.24284 -101.11479 36862 ft 478 kts 113°
2026-05-04 19:47 19.21735 -101.04988 36839 ft 478 kts 113°
2026-05-04 19:47 19.19179 -100.98493 36832 ft 478 kts 113°
2026-05-04 19:48 19.16620 -100.92002 36814 ft 478 kts 113°
2026-05-04 19:48 19.14076 -100.85554 36806 ft 477 kts 113°
2026-05-04 19:49 19.11517 -100.79076 36789 ft 478 kts 113°
2026-05-04 19:49 19.08942 -100.72566 36788 ft 478 kts 113°
2026-05-04 19:50 19.06370 -100.66070 36781 ft 478 kts 113°
2026-05-04 19:50 19.03812 -100.59618 36778 ft 479 kts 113°
2026-05-04 19:51 19.01233 -100.53120 36775 ft 479 kts 113°
2026-05-04 19:51 18.98644 -100.46607 36402 ft 486 kts 113°
2026-05-04 19:51 18.97332 -100.43308 35902 ft 485 kts 113°
2026-05-04 19:52 18.96026 -100.40026 35287 ft 485 kts 113°
2026-05-04 19:52 18.94717 -100.36736 34644 ft 486 kts 113°
2026-05-04 19:52 18.93406 -100.33445 33973 ft 488 kts 113°
2026-05-04 19:52 18.92085 -100.30131 33280 ft 489 kts 112°
2026-05-04 19:53 18.90770 -100.26833 32790 ft 484 kts 112°
2026-05-04 19:53 18.89474 -100.23586 32543 ft 474 kts 112°
2026-05-04 19:53 18.88218 -100.20444 32298 ft 465 kts 112°
2026-05-04 19:53 18.86954 -100.17283 32038 ft 457 kts 112°
2026-05-04 19:54 18.85744 -100.14256 31674 ft 451 kts 112°
2026-05-04 19:54 18.84513 -100.11177 31263 ft 447 kts 111°
2026-05-04 19:54 18.83324 -100.08203 30842 ft 444 kts 111°
2026-05-04 19:54 18.82125 -100.05208 30413 ft 441 kts 111°
2026-05-04 19:55 18.80934 -100.02234 29982 ft 438 kts 111°
2026-05-04 19:55 18.79750 -99.99277 29460 ft 436 kts 111°
2026-05-04 19:55 18.78573 -99.96341 28963 ft 432 kts 111°
2026-05-04 19:55 18.77406 -99.93430 28496 ft 428 kts 111°
2026-05-04 19:56 18.76249 -99.90542 28013 ft 425 kts 111°
2026-05-04 19:56 18.75099 -99.87680 27557 ft 422 kts 111°
2026-05-04 19:56 18.74121 -99.84779 27071 ft 416 kts 98°
2026-05-04 19:56 18.73981 -99.81771 26654 ft 408 kts 83°
2026-05-04 19:57 18.74607 -99.78918 26239 ft 402 kts 67°
2026-05-04 19:57 18.75705 -99.76225 25840 ft 398 kts 65°
2026-05-04 19:57 18.76861 -99.73573 25409 ft 397 kts 64°
2026-05-04 19:57 18.78026 -99.70932 24989 ft 396 kts 64°
2026-05-04 19:58 18.79180 -99.68293 24563 ft 395 kts 64°
2026-05-04 19:58 18.80321 -99.65654 24137 ft 395 kts 65°
2026-05-04 19:58 18.81452 -99.63010 23723 ft 394 kts 65°
2026-05-04 19:58 18.82572 -99.60375 23315 ft 393 kts 65°
2026-05-04 19:59 18.83688 -99.57739 22879 ft 392 kts 65°
2026-05-04 19:59 18.84794 -99.55123 22458 ft 388 kts 65°
2026-05-04 19:59 18.85888 -99.52535 22076 ft 384 kts 65°
2026-05-04 19:59 18.86971 -99.49971 21689 ft 381 kts 65°
2026-05-04 20:00 18.88046 -99.47428 21319 ft 377 kts 65°
2026-05-04 20:00 18.89107 -99.44913 20946 ft 373 kts 65°
2026-05-04 20:00 18.90147 -99.42449 20581 ft 370 kts 65°
2026-05-04 20:00 18.91193 -99.39969 20214 ft 367 kts 65°
2026-05-04 20:01 18.92226 -99.37520 19848 ft 364 kts 65°
2026-05-04 20:01 18.93250 -99.35094 19443 ft 356 kts 65°
2026-05-04 20:01 18.94302 -99.32768 19138 ft 345 kts 58°
2026-05-04 20:01 18.95672 -99.30738 18914 ft 337 kts 51°
2026-05-04 20:02 18.97165 -99.28760 18702 ft 354 kts 50°
2026-05-04 20:02 18.98734 -99.26703 18392 ft 363 kts 50°
2026-05-04 20:02 19.00318 -99.24619 17942 ft 362 kts 51°
2026-05-04 20:02 19.01884 -99.22541 17542 ft 360 kts 51°
2026-05-04 20:03 19.03429 -99.20481 17122 ft 356 kts 51°
2026-05-04 20:03 19.04960 -99.18431 16677 ft 353 kts 51°
2026-05-04 20:03 19.06452 -99.16430 16299 ft 349 kts 51°
2026-05-04 20:03 19.07943 -99.14426 15917 ft 345 kts 51°
2026-05-04 20:04 19.09412 -99.12452 15552 ft 336 kts 51°
2026-05-04 20:04 19.10833 -99.10542 15193 ft 324 kts 51°
2026-05-04 20:04 19.12204 -99.08699 14930 ft 314 kts 51°
2026-05-04 20:04 19.13536 -99.06909 14655 ft 305 kts 51°
2026-05-04 20:05 19.14875 -99.05219 14370 ft 296 kts 40°
2026-05-04 20:05 19.16609 -99.04138 14126 ft 286 kts 17°
2026-05-04 20:05 19.18550 -99.03868 13857 ft 280 kts 355°
2026-05-04 20:05 19.20433 -99.04320 13535 ft 276 kts 338°
2026-05-04 20:06 19.22035 -99.05357 13226 ft 273 kts 320°
2026-05-04 20:06 19.23437 -99.06720 12920 ft 268 kts 317°
2026-05-04 20:06 19.24712 -99.08107 12631 ft 265 kts 310°
2026-05-04 20:06 19.25834 -99.09656 12330 ft 262 kts 307°
2026-05-04 20:07 19.26905 -99.11208 12041 ft 260 kts 307°
2026-05-04 20:07 19.27978 -99.12742 11734 ft 256 kts 308°
2026-05-04 20:07 19.29018 -99.14204 11426 ft 246 kts 308°
2026-05-04 20:07 19.30035 -99.15621 11146 ft 237 kts 308°
2026-05-04 20:08 19.31018 -99.16984 10870 ft 229 kts 309°
2026-05-04 20:08 19.31983 -99.18271 10618 ft 217 kts 314°
2026-05-04 20:08 19.33187 -99.19199 10370 ft 218 kts 342°
2026-05-04 20:08 19.34679 -99.19454 10104 ft 221 kts
2026-05-04 20:09 19.36062 -99.18848 9859 ft 216 kts 40°
2026-05-04 20:09 19.37221 -99.17826 9607 ft 220 kts 38°
2026-05-04 20:09 19.38220 -99.16607 9441 ft 222 kts 58°
2026-05-04 20:09 19.39013 -99.15207 9308 ft 220 kts 58°
2026-05-04 20:10 19.39755 -99.13880 9242 ft 199 kts 59°
2026-05-04 20:10 19.40429 -99.12556 8396 ft 210 kts 62°
2026-05-04 20:10 19.41069 -99.11236 8096 ft 191 kts 58°
2026-05-04 20:10 19.41759 -99.10116 7812 ft 174 kts 51°
2026-05-04 20:11 19.42404 -99.09081 7532 ft 161 kts 54°
2026-05-04 20:11 19.42982 -99.08066 7453 ft 158 kts 56°
2026-05-04 20:11 19.43474 -99.07203 7449 ft 75 kts 59°
2026-05-04 20:11 19.43560 -99.06976 7450 ft 21 kts 128°
2026-05-04 20:12 19.43496 -99.06912 7460 ft 0 kts 138°
2026-05-04 20:12 19.43477 -99.06893 7464 ft 8 kts 135°
2026-05-04 20:13 19.43408 -99.06860 7471 ft 14 kts 206°
2026-05-04 20:13 19.43331 -99.06986 7470 ft 24 kts 239°
2026-05-04 20:13 19.43271 -99.07099 7472 ft 16 kts 249°
2026-05-04 20:13 19.43256 -99.07212 7469 ft 15 kts 261°
2026-05-04 20:14 19.43218 -99.07313 7467 ft 15 kts 239°
2026-05-04 20:14 19.43166 -99.07402 7466 ft 14 kts 238°
2026-05-04 20:14 19.43105 -99.07477 7469 ft 13 kts 207°
2026-05-04 20:14 19.43024 -99.07501 7473 ft 12 kts 196°
2026-05-04 20:15 19.42958 -99.07545 7473 ft 13 kts 237°
2026-05-04 20:15 19.42909 -99.07635 7475 ft 15 kts 243°
2026-05-04 20:15 19.42859 -99.07732 7477 ft 15 kts 238°
2026-05-04 20:15 19.42802 -99.07829 7473 ft 16 kts 240°
2026-05-04 20:16 19.42768 -99.07896 7476 ft 15 kts 240°
2026-05-04 20:16 19.42713 -99.07994 7476 ft 16 kts 239°
2026-05-04 20:16 19.42657 -99.08093 7474 ft 16 kts 240°
2026-05-04 20:16 19.42599 -99.08142 7475 ft 9 kts 173°
2026-05-04 20:17 19.42539 -99.08110 7476 ft 11 kts 150°
2026-05-04 20:17 19.42464 -99.08064 7478 ft 14 kts 149°
2026-05-04 20:17 19.42378 -99.08006 7477 ft 7 kts 136°
2026-05-04 20:17 19.42378 -99.07946 7478 ft 10 kts 61°
2026-05-04 20:18 19.42397 -99.07912 7478 ft 0 kts 58°